Погода в Юбилейном

Россия / Забайкальский край     50°16′06″N   118°21′34″E
темп.,
°C
ветер,
м/с
пор.,
м/с
влажн.,
%
обл.,
%
осадки,
мм/ч
давл.,
гПа
погр.,
м
15 мая, сб
сб1500:00+6зсз365777 0.0 1008116
03:00+5сз510675 0.0 1009408
06:00+5сз510725 0.0 1010828
09:00+9ссз7105316 0.0 10111327
12:00+14ссз710345 0.0 10102013
15:00+17зсз910239 0.0 10073239
18:00+16зсз9102232 0.0 10073237
21:00+12зюз22315 0.0 100812
16 мая, вс
вс1600:00+10юз33362 0.0 100821
03:00+9зюз22360 0.0 100715
06:00+7з49420 0.0 1008173
09:00+10зсз912390 0.0 10081197
12:00+15зсз911326 0.0 10061698
15:00+18зсз9112952 0.0 10041950
18:00+19зсз8143399 0.0 10022752
21:00+15зсз510396 0.0 1002228
17 мая, пн
пн1700:00+13зсз5124717 0.0 1003371
03:00+10зсз48546 0.0 1004190
06:00+8зсз336288 0.0 100558
09:00+12зсз333657 0.0 1005799
12:00+16юз462990 0.0 10021567
15:00+18зюз71128100 0.0 9992239
18:00+19сз5939100 0.1 9951319
21:00+13ссз34665 0.4 99784
18 мая, вт
вт1800:00+9ссз368119 0.0 1000251
03:00+7сз357869 0.0 1002226
06:00+7зсз357337 0.0 1004134
09:00+10сз59285 0.0 10061668
12:00+13зсз811288 0.0 10052507
15:00+14зсз911217 0.0 10042802
18:00+14зсз911175 0.0 10052825
21:00+10зсз11264 0.0 100610
19 мая, ср
ср1900:00+8юз11295 0.0 100610
03:00+8юз1129100 0.0 100710
06:00+8ююв1132100 0.0 100610
09:00+12ю3530100 0.0 1004513
12:00+18ююз91227100 0.0 10012391
15:00+20ююз11142329 0.0 9972739
18:00+21ююз10142258 0.0 9942960
21:00+14ссз5957100 0.0 996317